(512) Taurinensis
ephemeris date magn radius delta ra dec elong phase
Today6 Jul 202516.42.746 AU3.188 AU10h54m+14°40'55.6°17.8°
Opposition30 May 202613.32.216 AU1.211 AU16h37m-12°03'170.1°4.5°
(512) Taurinensis - 2025-07-06
astro.vanbuitenen.nl


 
-1 year
-1 month
-1 day
Now
+1 day
+1 month
+1 year

The interactive orbit chart above shows the body's path through the solar system and its position at the given date. Green and blue lines are shown perpendicular to the ecliptic plane: Green if the path is above the ecliptic plane, blue if it is below. (Left-click and drag to rotate the view; Right-click and drag to move the view; Use scroll wheel to zoom in our out.)

The orbital elements of Taurinensis are:

            e (Eccentricity)                : 0.2544102
            a (Semimajor axis)              : 2.1888327
            i (Inclination)                 : 8.74988
            Ω (Longitude of ascending node) : 106.99573
            ω (Argument of perihelion)      : 249.26910
            M (Mean anomaly)                : 162.86599
            Epoch                           : 2025 May 05

            L (Longitude of perihelion)     : 176.04180
            B (Latitude of perihelion)      : -8.17934
            P (Orbital period in years)     : 3.24            
        

The light curve chart below shows the estimated development of the minor planet's magnitude.


The all-sky chart below shows the path of the minor planet over the same period as the light curve. The current position is marked yellow.





The following chart shows the path of the minor planet in the next few days. The field of view is optimized for (~10x50) binoculars and finderscopes. A more printer-friendly version of the same chart can be found below.




Ephemerides:
Date       Time       RA (2000)    DEC (2000)    delta   radius  elong  phase   PA    magn
2025-07-06 00:00 UT   10 54 05.4   +14 40 45     3.188    2.746   55.6   17.8   108   16.4 
2025-07-06 00:20 UT   10 54 06.4   +14 40 38     3.188    2.746   55.6   17.8   108   16.4 
2025-07-07 00:00 UT   10 55 18.5   +14 32 19     3.199    2.745   55.0   17.7   108   16.4 
2025-07-08 00:00 UT   10 56 32.0   +14 23 51     3.210    2.745   54.4   17.5   108   16.4 
2025-07-09 00:00 UT   10 57 45.8   +14 15 20     3.220    2.745   53.8   17.4   108   16.4 
2025-07-10 00:00 UT   10 58 60.0   +14 06 47     3.231    2.745   53.2   17.2   107   16.4 
2025-07-11 00:00 UT   11 00 14.5   +13 58 12     3.242    2.745   52.6   17.1   107   16.4 
2025-07-12 00:00 UT   11 01 29.3   +13 49 35     3.252    2.745   52.0   17.0   107   16.4 
2025-07-13 00:00 UT   11 02 44.4   +13 40 56     3.262    2.745   51.3   16.8   107   16.4 
2025-07-14 00:00 UT   11 03 59.8   +13 32 15     3.273    2.745   50.7   16.7   107   16.4 
2025-07-15 00:00 UT   11 05 15.5   +13 23 31     3.283    2.745   50.1   16.5   107   16.4 
2025-07-16 00:00 UT   11 06 31.5   +13 14 46     3.293    2.744   49.5   16.4   107   16.4 
2025-07-17 00:00 UT   11 07 47.8   +13 05 58     3.303    2.744   48.9   16.2   107   16.4 
2025-07-18 00:00 UT   11 09 04.5   +12 57 09     3.313    2.744   48.3   16.1   107   16.4 
2025-07-19 00:00 UT   11 10 21.3   +12 48 18     3.322    2.744   47.7   15.9   107   16.4 
2025-07-20 00:00 UT   11 11 38.5   +12 39 24     3.332    2.744   47.1   15.7   107   16.4 
2025-07-21 00:00 UT   11 12 56.0   +12 30 29     3.342    2.744   46.5   15.6   107   16.4 
2025-07-22 00:00 UT   11 14 13.7   +12 21 32     3.351    2.743   45.9   15.4   106   16.4 
2025-07-23 00:00 UT   11 15 31.7   +12 12 33     3.360    2.743   45.3   15.3   106   16.4 
2025-07-24 00:00 UT   11 16 50.0   +12 03 32     3.370    2.743   44.7   15.1   106   16.4 
2025-07-25 00:00 UT   11 18 08.5   +11 54 29     3.379    2.743   44.2   15.0   106   16.4 
2025-07-26 00:00 UT   11 19 27.3   +11 45 25     3.388    2.742   43.6   14.8   106   16.4 
2025-07-27 00:00 UT   11 20 46.4   +11 36 19     3.396    2.742   43.0   14.6   106   16.4 
2025-07-28 00:00 UT   11 22 05.6   +11 27 12     3.405    2.742   42.4   14.5   106   16.4 
2025-07-29 00:00 UT   11 23 25.2   +11 18 03     3.414    2.742   41.8   14.3   106   16.4 
2025-07-30 00:00 UT   11 24 44.9   +11 08 52     3.422    2.741   41.2   14.1   106   16.4 


    Terminology:
            
    delta:  distance between minor planet and earth in AU
    radius: distance between minor planet and sun in AU
    magn:   magnitude (brightness) estimate    
    ra:     right ascension in hours (24h = 360deg)
    dec:    declination in degrees
    elong:  elongation in degrees (angle sun-earth-minor planet)    
    phase:  phase angle in degrees (angle sun-minor planet-earth)        
    AU:     Astronomical Unit (mean distance between earth and sun: 149597870.7 km
    

Orbital elements provided by the MPC (Minor Planet Center).
Calculations by a modified version of AAPlus, a C# implementation of the AA+ project by PJ Naughter from the algorithms presented in the book "Astronomical Algorithms" by Jean Meeus.
NGC2000 dso catalog and star labels from VizieR as provided by the Strasbourg astronomical Data Center.
Tycho2 catalog from the ESO archive.